Location: Unspecified
(52.0000°N, 4.4000°E)
Time: 06:14:12
(UTC+00:00)

ATLAS CENTAUR R/B - Pass Details

Date: 14 May 2025
Orbit: 376 x 501 km, 64.6° (Epoch: 14 June)

Event Time Altitude Azimuth Distance (km) Brightness Sun altitude
Rises 07:19:49 0° 304° (WNW) 2,625 4.3 30.1°
Reaches altitude 10° 07:22:57 10° 277° (W) 1,727 3.4 30.6°
Drops below altitude 10° 07:26:43 10° 218° (SW) 1,705 3.7 31.2°
Enters shadow 08:11:12 -80° 84° (E) 12,939 8.0 37.8°
Exits shadow 08:38:53 -37° 343° (NNW) 8,422 6.8 41.7°
Maximum altitude 21:06:10 15° 114° (ESE) 1,360 2.8 -11.7°
